Location: Ch?enovice
(49.7164°N, 15.2160°E)
Time: 16:06:03
(UTC+00:00)

USA 234 - Pass Details

Date: 23 May 2024
Orbit: 1100 x 1107 km, 123.0° (Epoch: 05 June)

Event Time Altitude Azimuth Distance (km) Brightness Sun altitude
Exits shadow 00:56:32 16° 182° (S) 2,530 4.6 -14.7°
Maximum altitude 01:00:38 29° 231° (SW) 1,891 4.0 -14.4°
Drops below altitude 10° 01:06:12 10° 290° (WNW) 2,964 5.4 -13.9°
Sets 01:09:05 0° 301° (WNW) 3,924 6.2 -13.7°
